Location: Huppendorf
(49.9333°N, 11.1500°E)
Time: 09:49:42
(UTC+00:00)

Cosmos 1092 Rocket - Pass Details

Date: 27 February 2020
Orbit: 954 x 995 km, 82.9° (Epoch: 09 April)

Event Time Altitude Azimuth Distance (km) Brightness Sun altitude
Rises 18:43:33 0° 351° (N) 3,725 7.3 -18.5°
Reaches altitude 10° 18:46:07 10° 354° (N) 2,773 6.6 -18.9°
Maximum altitude 18:52:29 71° 78° (ENE) 1,054 3.9 -19.9°
Enters shadow 18:58:45 10° 163° (SSE) 2,736 6.1 -20.9°
